When you browse on this site, cookies collect data to enhance your experience and personalize the content and advertising you see.
Visit our Privacy Policy to learn more. By continuing to use the site, you agree to this use of cookies and data.
  • In Österreich
  • Länderverzeichnis
  • Für 7 Tage
  • Wassertemperatur
  • Satellitenkarten
  • Wetterkarte
  • News
  • Widgets
  • user-avatar
    Anmelden

    Stündliche Wetter Iokogama

    Heute, 17 Februar, Sonntag

    Zeit Temperatur Niederschläge Wind Luftdruck Luftfeuchtigkeit
    00:00 +5°C° 0 mm 6 m/S 756 mmHg 54%
    01:00 +6°C° 0 mm 5 m/S 756 mmHg 55%
    02:00 +5°C° 0 mm 5 m/S 756 mmHg 56%
    03:00 +4°C° 0 mm 6 m/S 756 mmHg 55%
    04:00 +3°C° 0 mm 5 m/S 757 mmHg 55%
    05:00 +4°C° 0 mm 4 m/S 757 mmHg 54%
    06:00 +3°C° 0 mm 3 m/S 757 mmHg 54%
    07:00 +4°C° 0 mm 3 m/S 758 mmHg 51%
    08:00 +5°C° 0 mm 3 m/S 758 mmHg 48%
    09:00 +7°C° 0 mm 3 m/S 758 mmHg 45%
    10:00 +8°C° 0 mm 3 m/S 758 mmHg 42%
    11:00 +8°C° 0 mm 3 m/S 758 mmHg 40%
    12:00 +9°C° 0 mm 3 m/S 758 mmHg 37%
    13:00 +9°C° 0 mm 3 m/S 758 mmHg 38%
    14:00 +9°C° 0 mm 3 m/S 758 mmHg 38%
    15:00 +9°C° 0 mm 3 m/S 758 mmHg 38%
    16:00 +9°C° 0 mm 2 m/S 758 mmHg 42%
    17:00 +8°C° 0 mm 2 m/S 759 mmHg 46%
    18:00 +7°C° 0 mm 2 m/S 759 mmHg 50%
    19:00 +7°C° 0 mm 2 m/S 760 mmHg 50%
    20:00 +7°C° 0 mm 2 m/S 760 mmHg 49%
    21:00 +6°C° 0 mm 2 m/S 761 mmHg 49%
    22:00 +5°C° 0 mm 3 m/S 761 mmHg 49%
    23:00 +5°C° 0 mm 3 m/S 762 mmHg 49%

    Morgen, 18 Februar, Montag

    Zeit Temperatur Niederschläge Wind Luftdruck Luftfeuchtigkeit
    00:00 +4°C° 0 mm 4 m/S 762 mmHg 49%
    01:00 +4°C° 0 mm 3 m/S 762 mmHg 51%
    02:00 +4°C° 0 mm 3 m/S 762 mmHg 53%
    03:00 +4°C° 0 mm 3 m/S 763 mmHg 55%
    04:00 +4°C° 0 mm 3 m/S 763 mmHg 57%
    05:00 +3°C° 0 mm 3 m/S 763 mmHg 59%
    06:00 +3°C° 0 mm 3 m/S 764 mmHg 61%
    07:00 +4°C° 0 mm 3 m/S 764 mmHg 57%
    08:00 +5°C° 0 mm 3 m/S 765 mmHg 52%
    09:00 +7°C° 0 mm 2 m/S 765 mmHg 48%
    10:00 +9°C° 0 mm 2 m/S 765 mmHg 45%
    11:00 +10°C° 0 mm 2 m/S 765 mmHg 42%
    12:00 +12°C° 0 mm 1 m/S 765 mmHg 38%
    13:00 +12°C° 0 mm 2 m/S 764 mmHg 39%
    14:00 +13°C° 0 mm 2 m/S 764 mmHg 41%
    15:00 +12°C° 0 mm 3 m/S 764 mmHg 42%
    16:00 +11°C° 0 mm 3 m/S 765 mmHg 47%
    17:00 +10°C° 0 mm 3 m/S 765 mmHg 52%
    18:00 +10°C° 0 mm 3 m/S 766 mmHg 57%
    19:00 +9°C° 0 mm 2 m/S 766 mmHg 60%
    20:00 +9°C° 0 mm 2 m/S 767 mmHg 64%
    21:00 +9°C° 0 mm 1 m/S 767 mmHg 68%
    22:00 +8°C° 0 mm 2 m/S 767 mmHg 70%
    23:00 +7°C° 0 mm 2 m/S 767 mmHg 72%

    übermorgen, 19 Februar, Dienstag

    Zeit Temperatur Niederschläge Wind Luftdruck Luftfeuchtigkeit
    00:00 +7°C° 0 mm 2 m/S 767 mmHg 74%
    01:00 +7°C° 0 mm 2 m/S 767 mmHg 74%
    02:00 +6°C° 0 mm 2 m/S 767 mmHg 74%
    03:00 +6°C° 0 mm 2 m/S 767 mmHg 74%
    04:00 +6°C° 0 mm 2 m/S 767 mmHg 72%
    05:00 +6°C° 0 mm 2 m/S 767 mmHg 69%
    06:00 +5°C° 0 mm 2 m/S 767 mmHg 66%
    07:00 +8°C° 0 mm 1 m/S 767 mmHg 60%
    08:00 +9°C° 0 mm 1 m/S 767 mmHg 54%
    09:00 +10°C° 0 mm 1 m/S 767 mmHg 48%
    10:00 +10°C° 0 mm 3 m/S 766 mmHg 46%
    11:00 +12°C° 0 mm 4 m/S 766 mmHg 44%
    12:00 +13°C° 0 mm 5 m/S 765 mmHg 42%
    13:00 +13°C° 0 mm 6 m/S 765 mmHg 44%
    14:00 +13°C° 0 mm 6 m/S 764 mmHg 46%
    15:00 +13°C° 0 mm 6 m/S 764 mmHg 49%
    16:00 +11°C° 0 mm 6 m/S 764 mmHg 53%
    17:00 +11°C° 0 mm 6 m/S 764 mmHg 58%
    18:00 +10°C° 0 mm 6 m/S 764 mmHg 62%
    19:00 +10°C° 0.1 mm 6 m/S 764 mmHg 65%
    20:00 +9°C° 0.1 mm 6 m/S 764 mmHg 69%
    21:00 +9°C° 0.1 mm 5 m/S 764 mmHg 72%
    22:00 +9°C° 0.1 mm 5 m/S 764 mmHg 73%
    23:00 +9°C° 0.1 mm 5 m/S 763 mmHg 75%

    20 Februar, Mittwoch

    Zeit Temperatur Niederschläge Wind Luftdruck Luftfeuchtigkeit
    00:00 +10°C° 0.1 mm 4 m/S 763 mmHg 76%
    01:00 +8°C° 0 mm 4 m/S 762 mmHg 76%
    02:00 +9°C° 0 mm 3 m/S 762 mmHg 76%
    03:00 +9°C° 0 mm 3 m/S 761 mmHg 76%
    04:00 +9°C° 0 mm 3 m/S 761 mmHg 75%
    05:00 +9°C° 0 mm 2 m/S 761 mmHg 74%
    06:00 +9°C° 0 mm 2 m/S 761 mmHg 74%
    07:00 +10°C° 0 mm 2 m/S 761 mmHg 69%
    08:00 +10°C° 0 mm 2 m/S 760 mmHg 65%
    09:00 +12°C° 0 mm 2 m/S 760 mmHg 61%
    10:00 +13°C° 0 mm 2 m/S 759 mmHg 59%
    11:00 +13°C° 0 mm 2 m/S 759 mmHg 58%
    12:00 +14°C° 0 mm 1 m/S 758 mmHg 57%
    13:00 +14°C° 0 mm 1 m/S 757 mmHg 57%
    14:00 +14°C° 0 mm 1 m/S 757 mmHg 58%
    15:00 +15°C° 0 mm 1 m/S 756 mmHg 59%
    16:00 +14°C° 0 mm 1 m/S 756 mmHg 62%
    17:00 +14°C° 0 mm 1 m/S 755 mmHg 66%
    18:00 +14°C° 0 mm 1 m/S 755 mmHg 70%
    19:00 +13°C° 0 mm 1 m/S 755 mmHg 73%
    20:00 +13°C° 0 mm 1 m/S 755 mmHg 77%
    21:00 +13°C° 0 mm 1 m/S 755 mmHg 80%
    22:00 +12°C° 0 mm 2 m/S 755 mmHg 79%
    23:00 +11°C° 0 mm 3 m/S 755 mmHg 77%

    21 Februar, Donnerstag

    Zeit Temperatur Niederschläge Wind Luftdruck Luftfeuchtigkeit
    00:00 +10°C° 0 mm 3 m/S 755 mmHg 75%
    01:00 +10°C° 0 mm 4 m/S 755 mmHg 72%
    02:00 +9°C° 0 mm 5 m/S 755 mmHg 69%
    03:00 +9°C° 0 mm 5 m/S 756 mmHg 67%
    04:00 +8°C° 0 mm 6 m/S 756 mmHg 65%
    05:00 +8°C° 0 mm 6 m/S 757 mmHg 63%
    06:00 +7°C° 0 mm 6 m/S 757 mmHg 61%
    07:00 +8°C° 0 mm 6 m/S 758 mmHg 55%
    08:00 +9°C° 0 mm 5 m/S 758 mmHg 49%
    09:00 +11°C° 0 mm 4 m/S 759 mmHg 42%
    10:00 +12°C° 0 mm 4 m/S 759 mmHg 40%
    11:00 +14°C° 0 mm 3 m/S 759 mmHg 37%
    12:00 +16°C° 0 mm 3 m/S 758 mmHg 34%
    13:00 +16°C° 0 mm 3 m/S 758 mmHg 35%
    14:00 +14°C° 0 mm 3 m/S 759 mmHg 36%
    15:00 +14°C° 0 mm 3 m/S 759 mmHg 36%
    16:00 +15°C° 0 mm 2 m/S 759 mmHg 38%
    17:00 +14°C° 0 mm 2 m/S 760 mmHg 40%
    18:00 +13°C° 0 mm 2 m/S 760 mmHg 42%
    19:00 +13°C° 0 mm 2 m/S 761 mmHg 44%
    20:00 +12°C° 0 mm 2 m/S 762 mmHg 46%
    21:00 +12°C° 0 mm 2 m/S 762 mmHg 48%
    22:00 +12°C° 0 mm 1 m/S 762 mmHg 51%
    23:00 +11°C° 0 mm 1 m/S 762 mmHg 53%

    22 Februar, Freitag

    Zeit Temperatur Niederschläge Wind Luftdruck Luftfeuchtigkeit
    00:00 +11°C° 0 mm 1 m/S 762 mmHg 56%
    01:00 +10°C° 0 mm 1 m/S 762 mmHg 57%
    02:00 +9°C° 0 mm 2 m/S 762 mmHg 59%
    03:00 +9°C° 0 mm 2 m/S 762 mmHg 60%
    04:00 +9°C° 0 mm 2 m/S 762 mmHg 59%
    05:00 +9°C° 0 mm 3 m/S 762 mmHg 59%
    06:00 +9°C° 0 mm 3 m/S 763 mmHg 58%
    07:00 +9°C° 0 mm 3 m/S 763 mmHg 56%
    08:00 +10°C° 0 mm 3 m/S 763 mmHg 53%
    09:00 +10°C° 0 mm 3 m/S 763 mmHg 51%
    10:00 +11°C° 0 mm 3 m/S 763 mmHg 50%
    11:00 +12°C° 0 mm 3 m/S 763 mmHg 49%
    12:00 +13°C° 0 mm 3 m/S 762 mmHg 47%
    13:00 +13°C° 0 mm 4 m/S 762 mmHg 48%
    14:00 +14°C° 0 mm 4 m/S 762 mmHg 50%
    15:00 +14°C° 0 mm 4 m/S 761 mmHg 51%
    16:00 +13°C° 0 mm 4 m/S 762 mmHg 57%
    17:00 +13°C° 0 mm 4 m/S 762 mmHg 64%
    18:00 +12°C° 0 mm 4 m/S 763 mmHg 71%
    19:00 +12°C° 0.1 mm 4 m/S 762 mmHg 74%
    20:00 +12°C° 0.1 mm 4 m/S 762 mmHg 77%
    21:00 +11°C° 0.1 mm 4 m/S 762 mmHg 79%
    22:00 +11°C° 0.4 mm 4 m/S 762 mmHg 81%
    23:00 +11°C° 0.4 mm 3 m/S 762 mmHg 83%
    Mehr zeigen